K4JJE Weather Reports


Display with metric or nautical units.
time (UTC)temp
F
wind
direction
speed
MPH
gust
MPH
rain 1hr
in
rain 24hr
in
rain mn
in
humidity
%
barometer
mb
20260506043919 59 63 0.0 2.0 0.00 1.58 0.00 84 1014.5
20260506042520 59 62 1.0 5.0 0.00 1.58 0.00 84 1014.4
20260506041819 59 60 0.0 5.0 0.00 1.58 0.00 84 1014.7
20260506040420 59 60 0.0 2.0 0.00 1.58 0.00 85 1014.6
20260506035719 59 52 0.0 4.0 0.00 1.58 1.58 84 1014.5
20260506035019 58 27 0.0 4.0 0.00 1.58 1.58 84 1014.5
20260506034319 58 5 1.0 5.0 0.00 1.58 1.58 84 1014.8
20260506032919 58 12 1.0 4.0 0.00 1.58 1.58 84 1014.8
20260506032219 58 16 1.0 4.0 0.00 1.58 1.58 84 1014.8
20260506031520 58 3 1.0 4.0 0.00 1.58 1.58 85 1014.5
20260506030819 58 353 1.0 5.0 0.00 1.58 1.58 85 1014.6
20260506030119 58 21 2.0 5.0 0.00 1.58 1.58 86 1014.5
20260506025419 58 52 0.0 2.0 0.00 1.58 1.58 85 1014.6
20260506024019 58 52 0.0 2.0 0.00 1.58 1.58 85 1014.9
20260506023319 58 53 1.0 2.0 0.00 1.58 1.58 85 1014.7
20260506022619 57 54 1.0 2.0 0.00 1.58 1.58 86 1014.6
20260506021919 57 55 1.0 4.0 0.00 1.58 1.58 86 1014.4
20260506014624 58 90 0.0 4.0 1.58 1.58 1.58 84 1014.4
20260506013924 58 90 0.0 4.0 1.58 1.58 1.58 83 1014.3
20260506013224 58 101 1.0 5.0 1.58 1.58 1.58 82 1014.3
20260506011124 59 54 0.0 2.0 1.58 1.58 1.58 82 1014.2